Hourly Data Report for July 09, 2021

WINNIPEG THE FORKS
MANITOBA
Current Station Operator: ECCC - MSC

49°53'18.008" N
97°07'46.007" W
230.00 m
5023262
71579
XWN

Download Data

Hourly Data (July 2021)
Hourly Data Report for July 9, 2021
TIME
LST
Temp Definition
°C
Dew Point Definition
°C
Rel Hum Definition
%
Precip. Amount Definition
mm

Wind Dir Definition
10's deg

Wind Spd Definition
km/h
Visibility Definition
km
Stn Press Definition
kPa
Hmdx Definition


Wind Chill Definition


Weather Definition


00:00 19.8 12.6 63 0.0 20 4   98.68     LegendNANA
01:00 20.0 13.0 64 0.0 20 8   98.67     LegendNANA
02:00 19.1 12.8 67 0.0 20 7   98.69     LegendNANA
03:00 18.8 12.5 67 0.0 21 5   98.68     LegendNANA
04:00 18.0 12.3 70 0.0 11 1   98.69     LegendNANA
05:00 16.1 12.2 77 0.0   0   98.73     LegendNANA
06:00 17.2 12.4 73 0.0 19 5   98.77     LegendNANA
07:00 19.1 11.3 61 0.0 21 8   98.83     LegendNANA
08:00 20.5 11.3 55 0.0 20 11   98.86     LegendNANA
09:00 22.7 11.3 48 0.0 21 9   98.86 25   LegendNANA
10:00 25.2 12.0 44 0.0 21 9   98.89 27   LegendNANA
11:00 26.1 10.7 38 0.0 22 8   98.89 28   LegendNANA
12:00 26.9 10.0 35 0.0 20 4   98.87 28   LegendNANA
13:00 28.5 10.4 32 0.0 22 5   98.86 30   LegendNANA
14:00 27.8 8.6 30 0.0 22 7   98.84 28   LegendNANA
15:00 28.6 9.5 30 0.0 21 5   98.80 30   LegendNANA
16:00 29.4 9.3 28 0.0 17 4   98.76 30   LegendNANA
17:00 29.1 9.9 30 0.0 10 3   98.75 30   LegendNANA
18:00 29.3 8.9 28 0.0 22 5   98.74 30   LegendNANA
19:00 27.9 9.2 31 0.0 21 3   98.73 29   LegendNANA
20:00 26.2 9.5 35 0.0 20 3   98.73 27   LegendNANA
21:00 24.6 10.3 40 0.0 20 3   98.79 26   LegendNANA
22:00 23.6 10.7 44 0.0 20 5   98.83 25   LegendNANA
23:00 22.6 10.9 48 0.0 21 5   98.82     LegendNANA

Notes on Data Quality.

Legend

  • E = Estimated
  • M = Missing
  • NA = Not Available*
  • [empty] = Indicates an unobserved value
Date modified: